Theta_e
339 332 333 334 335 337 338 338 337 336 336 334 331 328 329 323 322 319 320 321 323 326 327 325 317 316 320 317 314 313 314 317 318 317 316 313 312 314 318 319 331 334 327
339 335 333 333 335 337 337 338 337 337 336 335 334 331 332 330 328 321 318 317 317 316 316 316 317 324 315 314 314 315 315 315 314 313 313 315 314 315 327 331 333 337 328
339 336 331 332 335 337 337 336 336 336 336 335 335 333 331 331 329 325 321 320 322 326 327 336 330 320 316 315 316 318 315 315 315 315 317 322 320 316 330 334 336 337 325
338 336 333 330 329 333 335 335 334 335 333 333 333 334 334 332 331 328 325 322 326 332 332 331 331 325 318 327 324 321 326 326 322 322 318 324 327 315 323 332 335 337 332
337 334 335 331 330 330 328 327 327 328 329 331 332 334 334 333 332 331 328 325 334 333 328 328 330 330 325 316 329 329 330 330 330 328 322 320 322 317 316 320 326 326 317
337 332 328 332 332 330 328 330 330 330 328 328 329 331 332 332 332 331 330 328 326 330 326 328 328 327 322 313 326 328 331 332 331 327 324 324 320 321 318 317 318 318 324
332 328 317 315 316 320 326 328 328 329 330 330 329 328 328 331 332 332 332 331 329 327 325 327 325 322 317 312 314 328 331 331 329 331 328 332 334 326 332 322 323 332 333
328 327 325 318 314 313 312 314 321 328 328 330 333 333 330 328 329 330 332 330 331 331 328 329 327 322 316 314 312 323 330 330 329 330 330 333 336 337 338 336 336 334 331
323 323 324 322 313 312 312 311 312 316 324 328 329 330 332 330 327 328 331 330 332 331 330 329 330 324 320 319 313 314 321 326 325 332 332 333 334 337 336 335 332 331 325
320 320 320 317 312 312 312 312 311 311 310 314 325 328 329 331 330 329 330 330 330 332 330 330 329 324 321 321 313 313 314 318 315 330 332 333 333 332 331 327 328 327 327
320 319 318 314 313 313 313 313 313 312 311 310 310 315 329 329 331 331 329 332 332 333 331 329 329 321 319 323 317 313 313 316 316 327 333 334 333 326 325 328 330 330 329
321 317 315 314 313 313 313 313 312 312 312 312 311 310 311 329 330 330 332 329 331 332 333 331 330 322 315 322 323 319 314 312 316 320 331 334 331 329 330 330 329 328 329
314 315 315 314 313 313 313 313 313 312 312 313 313 312 313 313 326 332 331 332 330 329 332 332 331 329 317 315 322 325 319 317 313 327 329 330 331 333 332 332 328 328 328
313 313 314 313 313 314 313 313 312 312 313 313 314 314 317 321 322 323 331 332 332 332 332 330 331 331 328 317 316 321 323 320 321 327 327 328 326 328 331 329 327 327 327
313 314 314 315 314 314 313 312 311 312 313 313 314 315 314 319 324 328 328 328 330 332 332 332 331 329 330 329 319 317 320 320 322 326 328 329 327 327 324 327 324 324 325
313 313 313 315 314 313 311 311 311 312 312 312 312 314 314 314 320 327 329 329 330 330 331 331 331 332 330 329 330 322 320 326 321 327 328 327 328 327 325 324 321 320 322
312 313 313 313 313 312 311 310 311 312 312 311 312 312 312 313 313 316 326 326 325 329 332 333 332 332 332 330 328 331 327 325 330 324 326 327 327 327 327 326 322 318 320
313 313 313 313 312 311 311 310 311 311 310 309 309 310 311 312 313 313 313 314 315 319 323 328 331 330 331 332 331 329 331 328 327 328 327 328 327 326 326 326 322 316 321
313 313 313 313 312 312 312 311 311 311 310 309 307 307 308 310 311 312 314 314 314 313 313 317 329 330 330 331 331 331 330 331 327 329 329 328 327 326 326 326 324 315 321
313 314 314 314 313 312 313 313 312 311 311 310 309 307 308 310 313 312 313 315 315 314 313 312 312 319 325 325 327 330 330 330 330 326 330 330 328 327 326 325 325 319 320
312 312 315 316 314 314 314 314 313 312 311 311 309 307 309 311 314 315 313 314 314 314 313 313 312 312 316 319 325 327 328 330 330 330 327 329 329 327 326 327 326 325 319
312 315 316 317 318 318 317 316 316 315 313 311 309 308 309 312 314 315 316 314 314 314 313 313 313 313 315 318 320 325 324 325 330 328 329 329 329 329 327 327 326 325 319
305 309 313 316 318 319 318 318 317 316 314 311 309 309 310 312 313 315 314 314 314 314 313 314 314 314 315 316 320 322 322 322 324 325 327 329 329 329 328 326 326 325 321
299 302 306 311 315 317 317 316 316 315 315 313 313 314 313 313 314 315 315 315 314 314 314 314 314 314 315 315 316 321 321 324 323 324 324 324 327 328 327 326 326 325 324
295 297 301 303 309 313 315 316 316 317 317 316 316 314 313 314 314 315 315 314 314 315 315 315 314 314 314 315 315 316 318 320 322 323 324 323 324 326 326 326 326 326 325
293 294 296 300 302 305 309 312 314 314 315 314 315 314 314 316 316 317 316 315 315 314 314 313 313 313 313 313 314 316 317 318 319 320 322 322 322 323 326 326 326 325 325
Wind_Speed
9 8 10 13 13 12 12 15 14 12 11 11 10 11 11 11 10 10 9 8 8 6 5 4 5 6 5 5 7 9 10 9 9 11 12 14 14 16 16 16 15 15 17
8 10 10 13 14 13 12 13 12 12 11 10 10 10 10 9 8 8 8 7 7 7 7 7 8 9 9 9 10 10 11 11 10 10 11 13 15 19 19 18 15 16 16
7 10 11 12 13 13 12 11 11 11 10 10 10 10 10 8 7 7 7 7 7 8 10 10 10 10 11 11 11 12 12 13 13 12 10 12 14 19 18 18 17 17 18
4 10 10 10 11 11 11 10 10 9 9 9 9 10 10 8 7 6 6 6 7 8 8 7 7 9 9 10 12 14 15 14 12 12 11 10 13 16 17 16 16 16 13
8 8 9 9 10 9 8 8 8 8 8 8 9 10 10 9 8 6 5 5 6 7 6 6 7 7 6 9 12 13 13 11 8 8 10 8 10 14 16 15 13 11 11
4 4 6 6 7 7 8 8 8 8 8 8 9 9 10 10 9 9 6 5 7 6 6 6 6 5 4 6 13 15 11 10 7 6 8 8 7 10 14 14 14 12 14
5 4 5 5 5 6 6 6 8 9 9 9 9 9 10 11 11 10 9 7 8 7 6 7 7 5 4 7 13 16 13 10 7 7 7 3 8 12 13 14 15 14 14
7 6 4 4 3 4 5 6 7 8 9 10 10 10 10 12 12 12 11 9 9 8 7 6 6 4 5 7 11 16 16 12 10 6 6 1 8 10 14 14 16 15 9
9 9 9 10 8 7 6 6 7 9 10 10 11 11 11 12 12 13 12 11 11 10 9 7 7 5 6 7 10 14 16 15 14 11 7 4 5 12 14 12 9 8 6
10 11 11 11 9 7 7 7 7 8 8 10 12 12 12 12 13 13 14 13 13 11 11 9 9 8 7 7 9 13 15 16 14 12 9 8 9 10 9 7 5 1 1
15 15 15 12 10 9 8 7 7 7 8 9 10 13 13 14 14 14 14 14 14 13 13 11 10 10 10 10 10 12 14 16 14 12 8 9 12 13 9 6 3 1 3
23 20 15 13 12 12 11 11 9 9 8 8 10 11 14 14 13 14 14 14 14 14 15 14 12 12 12 13 13 11 12 15 16 12 8 7 14 13 12 10 7 7 8
19 19 18 16 14 14 14 14 13 12 11 10 9 10 11 13 15 13 15 16 15 15 16 16 16 16 15 15 15 14 12 14 15 13 10 6 10 12 12 11 10 12 11
17 17 17 18 17 14 15 17 16 14 13 11 10 10 12 12 14 13 11 13 14 15 15 17 18 18 18 16 17 16 14 14 16 16 14 12 11 13 13 10 9 11 14
17 15 16 16 17 17 18 17 17 15 14 14 13 12 13 15 14 15 16 15 16 17 19 20 19 20 20 20 19 19 18 17 18 18 17 16 14 14 16 14 12 16 16
15 16 16 19 19 19 17 17 16 15 15 15 16 16 16 16 19 18 18 19 21 21 21 22 22 22 22 22 22 22 20 17 20 22 19 17 18 18 17 16 17 16 16
15 12 16 19 20 19 17 17 16 16 16 15 16 17 18 19 19 21 25 25 22 21 25 26 23 23 23 24 25 24 23 22 19 25 24 21 20 22 21 21 19 17 16
18 16 16 18 20 20 19 18 18 17 17 17 17 18 19 20 21 22 22 23 22 24 25 23 22 22 22 22 25 26 27 27 25 23 26 24 23 22 22 21 18 19 19
21 21 20 19 20 22 21 20 20 20 19 18 19 20 20 21 22 20 20 21 20 20 20 23 25 24 23 22 25 25 27 30 31 28 28 28 25 23 25 23 20 19 20
24 27 25 21 19 20 21 22 23 23 22 21 21 21 21 21 22 21 19 19 21 20 20 21 23 27 29 25 27 28 28 28 31 34 32 30 31 28 25 23 22 21 22
8 19 19 20 22 21 22 23 25 25 24 23 23 21 21 21 22 23 20 19 19 19 18 19 20 22 26 26 24 27 28 31 30 33 36 32 32 31 29 28 24 24 25
24 11 4 11 14 18 21 22 23 23 25 26 24 23 22 23 23 24 23 20 20 19 18 17 18 19 20 21 23 21 25 29 28 37 35 36 38 36 36 32 27 27 26
37 30 18 7 6 11 13 20 23 26 27 27 25 23 23 24 25 25 25 24 22 21 20 19 18 19 20 19 22 25 14 19 21 27 35 38 35 37 37 34 31 28 26
42 37 29 18 6 7 11 14 23 25 26 25 24 21 19 23 25 26 26 26 25 24 24 23 22 21 21 22 22 22 31 19 10 13 24 30 36 38 36 36 36 33 29
40 40 36 30 18 10 9 13 15 22 23 26 28 26 23 22 22 21 21 24 25 25 24 25 24 24 24 25 25 25 25 29 32 29 21 23 24 35 40 43 41 39 34
39 39 40 36 31 24 14 9 12 16 20 22 18 20 20 18 19 20 20 19 20 22 22 23 24 26 27 29 29 29 28 25 24 27 32 24 20 31 37 41 43 41 39
Wind_Direction
155 149 157 162 158 149 146 146 148 143 138 126 120 124 125 126 125 128 135 141 147 154 153 141 122 111 103 108 110 110 115 132 135 122 122 119 118 128 127 122 123 119 119
142 151 161 165 161 152 147 153 153 151 149 145 133 133 131 131 128 124 126 129 127 127 125 123 119 106 100 105 107 111 113 114 114 117 123 119 117 123 122 124 129 126 116
137 151 163 166 165 164 157 155 155 157 158 158 153 155 145 140 141 134 128 123 114 110 115 114 111 101 98 103 107 111 112 110 109 111 115 117 120 130 127 125 127 121 118
136 158 164 165 166 172 175 170 167 166 167 167 170 169 166 156 160 155 142 135 126 125 131 143 135 122 102 108 111 114 113 110 108 99 123 118 132 136 139 131 129 128 116
118 135 158 164 171 171 175 180 180 183 184 179 177 184 179 174 173 172 162 154 152 164 162 160 154 146 126 125 132 127 122 114 114 116 115 127 139 141 147 152 151 140 125
142 113 139 155 173 178 185 194 196 194 198 200 193 194 191 193 189 188 190 190 190 181 178 174 171 179 178 150 155 146 135 126 127 134 128 124 151 160 151 154 150 144 130
198 147 158 150 152 162 175 193 205 209 204 204 207 208 210 206 207 209 209 215 206 200 191 189 193 200 183 164 165 160 159 151 149 145 127 109 173 166 155 150 144 138 132
217 203 219 208 210 211 212 211 209 212 216 213 210 211 215 220 221 219 217 221 211 211 207 206 202 204 183 165 168 171 177 166 174 171 153 175 147 158 166 152 148 142 137
194 212 240 253 254 237 226 226 227 224 220 219 221 222 220 220 224 224 220 222 218 217 218 220 213 206 196 174 172 176 187 188 191 189 189 208 198 156 142 145 145 149 128
223 226 246 258 255 249 238 232 233 232 233 231 229 226 226 224 223 223 225 226 225 224 221 223 218 216 206 190 179 178 187 195 195 195 204 219 211 186 170 155 160 161 220
232 246 261 256 255 251 250 243 241 249 245 242 236 230 228 227 227 229 227 227 229 227 225 225 222 218 213 205 194 188 194 199 201 200 211 214 190 193 188 183 193 250 302
239 247 250 249 251 256 257 259 261 259 248 243 240 236 229 226 229 230 229 229 232 232 229 228 229 223 218 212 207 198 198 206 208 211 214 211 194 198 198 206 227 259 276
248 247 244 243 239 253 257 261 265 264 256 248 238 233 229 225 223 229 230 226 226 231 234 233 231 229 225 219 216 213 212 213 208 203 189 209 225 223 222 226 227 248 262
242 244 242 240 240 246 252 256 259 260 258 255 246 236 231 226 222 221 225 230 233 233 244 243 242 239 234 230 224 220 219 221 212 205 196 200 233 252 248 235 244 251 262
253 249 248 246 251 256 260 252 254 253 255 255 254 251 246 241 231 228 230 238 244 240 242 252 248 241 239 236 232 226 222 224 225 223 219 217 230 256 256 257 263 261 262
264 261 261 259 260 260 252 251 251 251 253 253 251 250 250 244 242 239 230 233 235 241 243 246 253 248 244 241 239 235 228 223 223 226 228 227 224 238 257 266 280 264 252
264 271 263 263 257 253 249 248 249 253 255 255 255 252 249 248 244 239 240 243 242 241 244 249 250 248 247 243 241 241 237 227 224 226 230 233 229 233 247 260 272 253 245
275 283 284 272 258 250 249 246 247 251 256 260 260 256 252 250 248 248 246 245 247 247 246 245 245 248 247 250 245 242 241 238 234 228 226 234 236 238 245 258 270 246 239
285 286 276 273 270 259 254 252 250 249 254 261 265 262 256 252 250 248 248 250 246 242 243 244 244 245 248 251 254 251 245 241 239 238 234 237 238 240 252 260 263 250 237
260 264 266 263 265 260 255 256 256 252 254 258 263 263 257 250 248 248 247 247 249 249 246 245 246 245 245 249 257 256 251 243 239 239 240 241 242 240 243 254 261 259 240
273 260 254 253 260 259 258 259 260 261 262 264 267 262 254 246 245 248 246 245 245 246 248 247 247 247 242 244 255 255 257 254 243 235 237 243 242 239 239 243 251 263 247
36 50 230 242 242 251 263 269 269 268 265 263 262 259 254 247 245 248 253 249 247 246 247 250 248 248 247 242 241 247 254 256 254 242 240 239 244 246 242 253 252 255 243
20 20 22 16 254 248 262 274 275 275 269 265 265 264 257 248 244 246 249 251 247 245 247 247 247 248 250 248 239 234 251 247 254 252 245 246 246 245 243 237 242 248 240
6 5 8 10 0 264 261 265 281 280 277 274 271 261 249 245 245 246 246 247 249 250 249 248 247 246 246 247 247 240 234 249 248 262 249 246 241 246 244 229 241 243 240
359 358 356 357 351 339 298 275 269 278 278 276 269 260 252 244 241 242 244 244 244 244 246 246 246 246 246 246 244 246 247 248 250 260 269 259 253 246 239 238 241 241 242
356 354 351 344 347 341 334 331 291 266 278 287 277 259 249 247 245 249 246 242 244 245 244 244 247 249 249 248 247 245 245 248 251 249 248 253 267 253 242 238 239 239 242